Weather Roundup
Issued by NWS Chicago, IL

Home | Current Version | Previous Version | Text Only | Print | Product List | Glossary Off
Versions: 1 2 3 4 5 6 7 8 9 10 11 12 13 14 15 16 17 18 19 20 21 22 23 24 25 26 27 28 29 30 31 32 33 34 35 36 37 38 39 40 41 42 43 44 45 46 47 48 49 50

000
NZUS59 KLOT 271758
HRRLOT

CHICAGO AREA WEATHER ROUNDUP
NATIONAL WEATHER SERVICE CHICAGO/ROMEOVILLE IL
1200 PM CST SAT DEC 27 2014

NOTE: "FAIR" INDICATES FEW OR NO CLOUDS BELOW 12,000 FEET WITH NO
SIGNIFICANT WEATHER AND/OR OBSTRUCTIONS TO VISIBILITY.

* THESE STATIONS ARE NOT UNDER NWS QUALITY CONTROL. THEY ALSO MAY NOT
  REPORT WEATHER SUCH AS PRECIPITATION OR FOG.

ILZ005-006-012>014-019>023-271900-
NORTHEAST ILLINOIS

CITY           SKY/WX    TMP DP  RH WIND       PRES   REMARKS
OHARE          CLOUDY    39  35  86 W24       29.97R
6HR MIN TEMP:  39; 6HR MAX TEMP:  49; 6HR PCP: TRACE;

MIDWAY         NOT AVBL
AURORA         CLOUDY    38  31  76 SW16      30.00F
6HR MIN TEMP:  38; 6HR MAX TEMP:  49; 6HR PCP:  0.01;

WAUKEGAN       NOT AVBL
DUPAGE AIRPORT CLOUDY    38  32  79 W18G28    29.97F
6HR MIN TEMP:  38; 6HR MAX TEMP:  49; 6HR PCP: TRACE;

WHEELING       CLOUDY    41  36  82 W14G26    29.98R
6HR MIN TEMP:  41; 6HR MAX TEMP:  49; 6HR PCP: TRACE;

NORTHERLY IS     N/A     45  40  82 W12         N/A
$$

WIZ051-052-058>065-066-070>072-271900-
SOUTHEAST WISCONSIN

CITY           SKY/WX    TMP DP  RH WIND       PRES   REMARKS
MILWAUKEE      CLOUDY    42  36  79 W22G39    29.88R
6HR MIN TEMP:  42; 6HR MAX TEMP:  50; 6HR PCP:  0.01;

KENOSHA*       CLOUDY    43  36  75 W21G35    29.90R
RACINE*        CLOUDY    43  36  75 SW16G30   29.91R
$$

INZ001>003-010>013-019-020-271900-
NORTHWEST INDIANA

CITY           SKY/WX    TMP DP  RH WIND       PRES   REMARKS
GARY*          CLOUDY    50  45  81 SW20G36   29.98F HAZE
MICHIGAN CITY* NOT AVBL
RENSSELAER*    NOT AVBL
VALPARAISO     LGT RAIN  47  46  97 SW18G26   30.00F FOG
$$

LMZ740>746-271900-
SOUTHERN LAKE MICHIGAN

STATION/POSITION TIME  SKY/WX   TEMP WIND        PRES    VSBY
                                AIR  DIR/SP/G
                 (UTC)          (F)  (DEG/KT/KT) (MB)    (MI)
HARRISON CRIB    1700            47  210/ 23/ 30   N/A
BURNHAM HARBOR   1700            49  200/ 13/ 17   N/A
CALUMET HARBOR   1700            48  200/ 12/ 22 1013.8F
BURNS HARBOR     NOT AVBL
MICHIGAN CITY    1700            47  180/ 19/ 25   N/A
$$

ABBREVIATIONS USED IN REMARKS
   TC - TEMPERATURE IN CELSIUS
  WCI - WIND CHILL INDEX
   HX - HEAT INDEX
  VSB - VISIBILITY
$$



USA.gov is the U.S. government's official web portal to all federal, state and local government web resources and services.